MST,Max TemperatureF,Mean TemperatureF,Min TemperatureF,Max Dew PointF,MeanDew PointF,Min DewpointF,Max Humidity, Mean Humidity, Min Humidity, Max Sea Level PressureIn, Mean Sea Level PressureIn, Min Sea Level PressureIn, Max VisibilityMiles, Mean VisibilityMiles, Min VisibilityMiles, Max Wind SpeedMPH, Mean Wind SpeedMPH, Max Gust SpeedMPH,PrecipitationIn, CloudCover, Events, WindDirDegrees
2011-10-1,86,76,66,46,42,38,43,31,19,30.16,30.00,29.89,10,10,10,9,3,,0.00,1,,317
2011-10-2,82,76,69,49,45,42,47,36,25,30.22,30.00,29.91,10,10,10,9,5,,0.00,3,,196
2011-10-3,82,73,64,54,46,40,64,41,24,30.15,29.94,29.82,10,10,10,14,5,26,0.03,2,Rain-Thunderstorm,233
2011-10-4,79,70,60,49,43,33,62,41,19,30.02,29.83,29.68,10,10,9,16,6,37,0.00,4,Rain-Thunderstorm,207
2011-10-5,69,62,54,49,42,34,80,56,27,29.89,29.68,29.44,10,10,6,16,7,28,0.07,5,Rain,199
2011-10-6,60,52,44,41,33,25,82,53,28,29.85,29.67,29.42,10,9,2,14,8,26,0.17,4,Rain,273
2011-10-7,61,52,44,34,28,22,63,43,22,30.02,29.92,29.86,10,10,10,10,4,18,0.00,0,Rain,302
2011-10-8,63,54,46,35,31,28,56,41,28,30.15,30.01,29.93,10,10,10,14,4,,0.00,3,,19
2011-10-9,64,55,46,35,31,24,62,42,23,30.15,30.02,29.96,10,10,5,10,4,,0.00,0,,355
2011-10-10,69,57,45,35,32,30,61,39,24,30.10,29.94,29.84,10,10,10,7,1,,0.00,1,,349
2011-10-11,78,66,53,39,34,30,47,32,21,30.07,29.89,29.80,10,10,10,7,4,,0.00,0,,143
2011-10-12,77,66,55,39,33,26,51,32,16,30.16,30.02,29.93,10,10,10,8,3,,0.00,0,,42
2011-10-13,78,65,52,32,28,24,41,27,14,30.15,29.99,29.88,10,10,10,7,2,,0.00,0,,92
2011-10-14,81,67,53,34,30,25,45,26,15,30.11,29.94,29.86,10,10,10,7,2,,0.00,0,,264
2011-10-15,82,68,55,34,30,25,44,25,13,30.16,29.95,29.85,10,10,10,10,3,,0.00,0,,275
2011-10-16,82,70,57,36,30,24,37,23,12,30.09,29.92,29.84,10,10,10,9,3,17,0.00,0,,274
2011-10-17,78,69,60,36,31,24,41,26,15,30.22,30.02,29.88,10,10,10,10,5,,0.00,0,,311
2011-10-18,73,62,50,28,25,21,39,26,14,30.32,30.14,30.08,10,10,10,6,2,,0.00,0,,125
2011-10-19,72,59,46,27,23,20,36,26,14,30.08,29.97,29.85,10,10,7,6,2,,0.00,0,,270
2011-10-20,77,64,50,29,25,21,41,25,13,30.13,30.00,29.92,10,10,10,7,2,,0.00,0,,281
2011-10-21,77,64,51,26,23,20,38,23,12,30.20,30.07,30.00,10,10,10,6,3,,0.00,0,,197
2011-10-22,77,64,51,32,26,20,39,25,15,30.15,30.09,30.02,10,9,4,8,2,,0.00,0,,4
2011-10-23,75,63,51,30,26,24,38,27,15,30.24,30.09,30.01,10,10,9,9,2,,0.00,0,,347
2011-10-24,75,62,50,29,26,23,41,25,14,30.05,29.96,29.86,10,10,10,6,2,,0.00,0,,244
2011-10-25,75,68,62,52,39,28,60,36,22,30.00,29.85,29.72,10,9,1,17,7,29,0.15,4,Rain-Thunderstorm,203
2011-10-26,60,52,44,44,38,25,93,67,38,30.05,29.95,29.76,10,9,2,18,6,22,0.24,6,Rain,339
2011-10-27,55,46,37,30,25,22,60,44,29,30.18,30.12,30.06,10,10,6,8,4,,0.00,0,,292
2011-10-28,59,48,37,30,26,20,70,45,22,30.32,30.23,30.18,10,10,9,6,1,,0.00,0,,37
2011-10-29,62,50,39,30,28,25,65,43,25,30.23,30.15,30.07,10,10,5,8,1,,0.00,0,,346
2011-10-30,66,56,45,34,30,28,56,42,23,30.25,30.17,30.11,10,10,9,6,2,,0.00,0,,2
2011-10-31,66,55,44,34,30,28,58,41,24,30.13,30.03,29.92,10,10,9,5,2,,0.00,0,,341